Weather History for KAFF - January, 2014

Change the Weather History Date:

Thursday, January 30, 2014

  Actual Average Record
Temperature  
Mean Temperature 38 °F -  
Max Temperature 49 °F 40 °F 59 °F (1997)
Min Temperature 26 °F 19 °F 3 °F (2013)
Degree Days  
Heating Degree Days 28    
Moisture  
Dew Point 29 °F    
Average Humidity 85    
Maximum Humidity 100    
Minimum Humidity 37    
Precipitation  
Precipitation 0.52 in - - ()
Sea Level Pressure  
Sea Level Pressure 29.63 in    
Wind  
Wind Speed 16 mph (SSE)    
Max Wind Speed 36 mph    
Max Gust Speed 61 mph    
Visibility 8 miles    
Events Snow    
Averages and records for this station are not official NWS values.
T = Trace of Precipitation, MM = Missing Value Source: NWS Daily Summary

Daily Weather History Graph

Daily Weather History Graph

Search for Another Location

Airport or City:

Trip Planner

Search our weather history database for the weather conditions in past years. The results will help you decide how hot, cold, wet, or windy it might be!

Date:

Astronomy

Jan. 30, 2014 Rise Set
Actual Time 7:07 AM MST 5:18 PM MST
Civil Twilight 6:39 AM MST 5:46 PM MST
Nautical Twilight 6:07 AM MST 6:18 PM MST
Astronomical Twilight 5:35 AM MST 6:50 PM MST
Moon 6:35 AM MST (1/30) 5:32 PM MST (1/30)
Length of Visible Light 11h 07m
Length of Day
10h 11m
Waning Crescent, 0% of the Moon is Illuminated
Jan 30
Waning Crescent
Jan 30
New
Feb 6
First Quarter
Feb 14
Full
Feb 22
Last Quarter

Hourly Weather History & Observations

Time (MST) Temp. Windchill Dew Point Humidity Pressure Visibility Wind Dir Wind Speed Gust Speed Precip Events Conditions
1:58 AM 49.6 °F - 24.3 °F 37% 29.36 in 10.0 mi WSW 35.7 mph 61.0 mph 0.42 in   Clear
2:58 AM 48.9 °F - 25.2 °F 40% 29.40 in 10.0 mi West 33.4 mph 43.7 mph 0.05 in   Clear
3:58 AM 48.0 °F - 25.7 °F 42% 29.42 in 10.0 mi West 20.7 mph 33.4 mph N/A   Clear
4:48 AM 46.4 °F 40.1 °F 24.8 °F 43% 29.57 in 10.0 mi NNW 15.0 mph 27.6 mph N/A   Clear
4:58 AM 45.5 °F 38.1 °F 26.4 °F 47% 29.52 in 10.0 mi NNW 18.4 mph 28.8 mph N/A   Clear
5:58 AM 37.0 °F 29.8 °F 32.2 °F 83% 29.60 in 10.0 mi NNW 10.4 mph - N/A   Clear
6:58 AM 36.3 °F 27.5 °F 30.4 °F 79% 29.57 in 10.0 mi North 13.8 mph 28.8 mph N/A   Clear
7:58 AM 36.0 °F 26.7 °F 28.2 °F 73% 29.59 in 10.0 mi North 15.0 mph - N/A   Clear
8:05 AM 35.6 °F 25.9 °F 28.4 °F 75% 29.65 in 10.0 mi North 16.1 mph - N/A   Mostly Cloudy
8:58 AM 37.2 °F 30.0 °F 27.1 °F 67% 29.62 in 10.0 mi North 10.4 mph - N/A   Mostly Cloudy
9:58 AM 40.8 °F 37.8 °F 26.4 °F 57% 29.62 in 10.0 mi SW 4.6 mph - N/A   Mostly Cloudy
10:58 AM 41.0 °F - 23.4 °F 50% 29.63 in 10.0 mi Variable 2.3 mph - N/A   Mostly Cloudy
11:58 AM 42.3 °F 35.1 °F 28.6 °F 58% 29.59 in 10.0 mi SSE 13.8 mph - N/A   Mostly Cloudy
12:18 PM 41.0 °F 33.9 °F 28.4 °F 61% 29.68 in 10.0 mi South 12.7 mph - N/A   Mostly Cloudy
12:23 PM 41.0 °F 33.1 °F 28.4 °F 61% 29.68 in 10.0 mi South 15.0 mph - N/A   Mostly Cloudy
12:58 PM 40.1 °F 32.4 °F 28.6 °F 63% 29.57 in 10.0 mi South 13.8 mph - N/A   Overcast
1:38 PM 39.2 °F 30.5 °F 30.2 °F 70% 29.66 in 10.0 mi SSE 16.1 mph - N/A   Light Drizzle
1:50 PM 37.4 °F 28.2 °F 30.2 °F 75% 29.66 in 10.0 mi SSE 16.1 mph - N/A Snow Light Snow
1:58 PM 37.4 °F 29.3 °F 29.3 °F 73% 29.58 in 10.0 mi SSE 12.7 mph - 0.00 in Snow Light Snow
1:59 PM 37.4 °F 28.5 °F 30.2 °F 75% 29.66 in 7.0 mi SSE 15.0 mph - N/A Snow Light Snow
2:21 PM 37.4 °F 28.5 °F 28.4 °F 70% 29.66 in 10.0 mi SSE 15.0 mph - N/A   Overcast
2:58 PM 36.0 °F 27.1 °F 29.1 °F 76% 29.58 in 10.0 mi SSE 13.8 mph - N/A   Overcast
3:03 PM 35.6 °F 26.2 °F 30.2 °F 81% 29.65 in 10.0 mi SSE 15.0 mph - N/A   Overcast
3:13 PM 35.6 °F 26.2 °F 30.2 °F 81% 29.66 in 10.0 mi SSE 15.0 mph - N/A   Overcast
3:58 PM 33.8 °F 23.9 °F 32.0 °F 93% 29.61 in 10.0 mi SSE 15.0 mph - N/A   Overcast
4:23 PM 32.0 °F 21.6 °F 32.0 °F 100% 29.66 in 10.0 mi SSE 15.0 mph - N/A   Overcast
4:50 PM 32.0 °F 23.6 °F 32.0 °F 100% 29.66 in 10.0 mi SSE 10.4 mph - N/A   Overcast
4:55 PM 32.0 °F 23.0 °F 32.0 °F 100% 29.67 in 10.0 mi SSE 11.5 mph - N/A   Overcast
4:58 PM 33.3 °F 25.1 °F 31.3 °F 92% 29.63 in 10.0 mi South 10.4 mph - 0.00 in   Overcast
5:02 PM 32.0 °F 23.0 °F 32.0 °F 100% 29.66 in 10.0 mi SSE 11.5 mph - N/A   Overcast
5:11 PM 32.0 °F 24.8 °F 32.0 °F 100% 29.67 in 10.0 mi South 8.1 mph - N/A   Overcast
5:25 PM 32.0 °F 23.6 °F 32.0 °F 100% 29.67 in 10.0 mi SSE 10.4 mph - N/A   Overcast
5:30 PM 32.0 °F 23.0 °F 32.0 °F 100% 29.67 in 10.0 mi SSE 11.5 mph - N/A   Overcast
5:40 PM 32.0 °F 22.5 °F 32.0 °F 100% 29.68 in 10.0 mi South 12.7 mph - N/A   Overcast
5:51 PM 32.0 °F 22.1 °F 32.0 °F 100% 29.67 in 10.0 mi South 13.8 mph - N/A   Overcast
5:58 PM 33.3 °F 23.7 °F 30.4 °F 89% 29.68 in 10.0 mi South 13.8 mph - 0.00 in   Overcast
6:01 PM 32.0 °F 23.6 °F 30.2 °F 93% 29.66 in 10.0 mi South 10.4 mph - N/A   Overcast
6:37 PM 32.0 °F 22.5 °F 30.2 °F 93% 29.68 in 10.0 mi South 12.7 mph - N/A   Overcast
6:58 PM 32.2 °F 23.2 °F 30.2 °F 92% 29.70 in 7.0 mi South 11.5 mph - 0.00 in Snow Light Snow
7:03 PM 32.0 °F 23.0 °F 32.0 °F 100% 29.68 in 7.0 mi South 11.5 mph - N/A Snow Light Snow
7:12 PM 32.0 °F 23.6 °F 32.0 °F 100% 29.67 in 10.0 mi South 10.4 mph - N/A   Overcast
7:13 PM 32.0 °F 23.6 °F 32.0 °F 100% 29.67 in 10.0 mi South 10.4 mph - N/A   Light Freezing Drizzle
7:18 PM 32.0 °F 22.5 °F 32.0 °F 100% 29.67 in 10.0 mi South 12.7 mph - N/A   Light Freezing Drizzle
7:28 PM 32.0 °F 23.0 °F 32.0 °F 100% 29.66 in 10.0 mi South 11.5 mph - N/A   Light Freezing Drizzle
7:40 PM 32.0 °F 23.6 °F 32.0 °F 100% 29.66 in 10.0 mi South 10.4 mph - N/A Snow Light Snow
7:45 PM 32.0 °F 23.0 °F 32.0 °F 100% 29.66 in 9.0 mi South 11.5 mph - N/A Snow Light Snow
7:50 PM 32.0 °F 23.6 °F 32.0 °F 100% 29.66 in 9.0 mi South 10.4 mph - N/A Snow Light Snow
7:52 PM 32.0 °F 23.0 °F 32.0 °F 100% 29.66 in 10.0 mi South 11.5 mph - N/A   Mostly Cloudy
7:57 PM 32.0 °F 23.6 °F 30.2 °F 93% 29.66 in 10.0 mi South 10.4 mph - N/A   Mostly Cloudy
7:58 PM 32.0 °F 23.6 °F 30.2 °F 93% 29.68 in 10.0 mi South 10.4 mph - 0.00 in   Mostly Cloudy
8:02 PM 32.0 °F 23.6 °F 30.2 °F 93% 29.65 in 10.0 mi SSE 10.4 mph - N/A Snow Light Snow
8:12 PM 32.0 °F 22.5 °F 28.4 °F 87% 29.65 in 10.0 mi SSE 12.7 mph - N/A   Mostly Cloudy
8:20 PM 32.0 °F 22.1 °F 28.4 °F 87% 29.65 in 10.0 mi SSE 13.8 mph - N/A Snow Light Snow
8:37 PM 32.0 °F 22.1 °F 26.6 °F 80% 29.65 in 8.0 mi SSE 13.8 mph - N/A   Overcast
8:43 PM 32.0 °F 22.1 °F 26.6 °F 80% 29.65 in 8.0 mi SSE 13.8 mph - N/A Snow Light Snow
8:58 PM 30.9 °F 21.7 °F 27.7 °F 88% 29.65 in 6.0 mi SSE 11.5 mph - 0.00 in Snow Light Snow
9:48 PM 30.2 °F 20.8 °F 26.6 °F 86% 29.64 in 6.0 mi SSE 11.5 mph - N/A Snow Light Snow
9:58 PM 30.2 °F 21.3 °F 26.6 °F 86% 29.64 in 9.0 mi SSE 10.4 mph - 0.00 in Snow Light Snow
10:23 PM 28.4 °F 21.2 °F 28.4 °F 100% 29.64 in 4.0 mi South 6.9 mph - N/A Snow Light Snow
10:28 PM 28.4 °F 21.2 °F 28.4 °F 100% 29.64 in 2.5 mi South 6.9 mph - N/A Snow Light Snow
10:38 PM 28.4 °F 20.4 °F 28.4 °F 100% 29.63 in 2.0 mi South 8.1 mph - N/A Snow Light Snow
10:43 PM 28.4 °F 20.4 °F 28.4 °F 100% 29.63 in 1.5 mi SSE 8.1 mph - N/A Snow Light Snow
10:48 PM 28.4 °F 20.4 °F 28.4 °F 100% 29.63 in 1.0 mi SSE 8.1 mph - N/A Snow Light Snow
10:58 PM 28.2 °F 20.2 °F 27.7 °F 98% 29.64 in 1.2 mi SSE 8.1 mph - 0.04 in Snow Light Snow
11:08 PM 28.4 °F 21.2 °F 28.4 °F 100% 29.63 in 2.0 mi South 6.9 mph - N/A Snow Light Snow
11:13 PM 28.4 °F 23.3 °F 28.4 °F 100% 29.63 in 3.0 mi South 4.6 mph - N/A Snow Light Snow
11:18 PM 28.4 °F 22.2 °F 28.4 °F 100% 29.63 in 6.0 mi SSE 5.8 mph - N/A Snow Light Snow
11:43 PM 26.6 °F 19.1 °F 26.6 °F 100% 29.63 in 6.0 mi SE 6.9 mph - N/A Snow Light Snow
11:48 PM 26.6 °F 18.2 °F 26.6 °F 100% 29.64 in 6.0 mi SE 8.1 mph - N/A Snow Light Snow
11:51 PM 26.6 °F 17.5 °F 26.6 °F 100% 29.64 in 7.0 mi ESE 9.2 mph - N/A   Overcast
11:56 PM 26.6 °F 19.1 °F 24.8 °F 93% 29.64 in 8.0 mi ESE 6.9 mph - N/A   Overcast
11:58 PM 26.6 °F 19.1 °F 25.5 °F 96% 29.65 in 9.0 mi SE 6.9 mph - 0.01 in   Overcast